Abilene, TX

12:40 AM CDT on September 26, 2016 (GMT -0500)
Abilene Regional

Weather History for KABI - January, 2011

Change the Weather History Date:

Saturday, January 8, 2011

  Actual Average Record
Temperature  
Mean Temperature 42 °F 44 °F  
Max Temperature 59 °F 56 °F 88 °F (1969)
Min Temperature 25 °F 33 °F -3 °F (1886)
Degree Days  
Heating Degree Days 23 21  
Month to date heating degree days 177 168  
Since 1 July heating degree days 997 1213  
Cooling Degree Days 0 0  
Month to date cooling degree days 0 0  
Year to date cooling degree days 0 0  
Moisture  
Dew Point 24 °F    
Average Humidity 54    
Maximum Humidity 85    
Minimum Humidity 23    
Precipitation  
Precipitation T in 0.03 in 0.97 in (1981)
Month to date precipitation T 0.24  
Year to date precipitation T 0.24  
Sea Level Pressure  
Sea Level Pressure 29.87 in    
Wind  
Wind Speed 9 mph (SE)    
Max Wind Speed 21 mph    
Max Gust Speed 24 mph    
Visibility 10 miles    
Events Rain    
T = Trace of Precipitation, MM = Missing Value Source: NWS Daily Summary

Daily Weather History Graph

Daily Weather History Graph

Search for Another Location

Airport or City:

Trip Planner

Search our weather history database for the weather conditions in past years. The results will help you decide how hot, cold, wet, or windy it might be!

Date:

Astronomy

Jan. 08, 2011 Rise Set
Actual Time 7:41 AM CST 5:49 PM CST
Civil Twilight 7:14 AM CST 6:16 PM CST
Nautical Twilight 6:43 AM CST 6:47 PM CST
Astronomical Twilight 6:14 AM CST 7:16 PM CST
Moon 10:05 AM CST (1/8) 10:06 PM CST (1/8)
Length of Visible Light 11h 02m
Length of Day
10h 08m
Waxing Crescent, 18% of the Moon is Illuminated
Jan 8
Waxing Crescent
Jan 12
First Quarter
Jan 19
Full
Jan 26
Last Quarter
Feb 2
New

Hourly Weather History & Observations

Time (CST) Temp. Windchill Dew Point Humidity Pressure Visibility Wind Dir Wind Speed Gust Speed Precip Events Conditions
12:52 AM 32.0 °F 26.4 °F 25.0 °F 75% 29.93 in 10.0 mi SSW 5.8 mph - N/A   Clear
1:52 AM 36.0 °F 33.3 °F 26.1 °F 67% 29.91 in 10.0 mi SW 3.5 mph - N/A   Clear
2:52 AM 33.1 °F 28.7 °F 25.0 °F 72% 29.93 in 10.0 mi South 4.6 mph - N/A   Clear
3:52 AM 34.0 °F - 25.0 °F 70% 29.93 in 10.0 mi Calm Calm - N/A   Clear
4:52 AM 30.9 °F - 25.0 °F 79% 29.93 in 10.0 mi Calm Calm - N/A   Clear
5:52 AM 28.9 °F - 24.1 °F 82% 29.94 in 10.0 mi Calm Calm - N/A   Clear
6:52 AM 28.0 °F - 24.1 °F 85% 29.96 in 10.0 mi Calm Calm - N/A   Clear
7:52 AM 28.0 °F 22.8 °F 24.1 °F 85% 29.97 in 10.0 mi South 4.6 mph - N/A   Clear
8:52 AM 30.9 °F - 27.0 °F 85% 30.00 in 10.0 mi Calm Calm - N/A   Clear
9:52 AM 44.1 °F 38.1 °F 26.1 °F 49% 29.98 in 10.0 mi SE 11.5 mph - N/A   Clear
10:52 AM 48.0 °F - 21.9 °F 36% 29.96 in 10.0 mi SE 10.4 mph - N/A   Clear
11:52 AM 52.0 °F - 21.9 °F 31% 29.93 in 10.0 mi SSE 10.4 mph - N/A   Clear
12:52 PM 55.0 °F - 23.0 °F 29% 29.88 in 10.0 mi ESE 11.5 mph - N/A   Partly Cloudy
1:52 PM 57.9 °F - 21.9 °F 25% 29.81 in 10.0 mi ESE 10.4 mph - N/A   Partly Cloudy
2:52 PM 59.0 °F - 21.9 °F 24% 29.79 in 10.0 mi SE 13.8 mph - N/A   Clear
3:52 PM 57.9 °F - 21.9 °F 25% 29.78 in 10.0 mi SE 15.0 mph - N/A   Mostly Cloudy
4:52 PM 55.0 °F - 23.0 °F 29% 29.79 in 10.0 mi ESE 10.4 mph - N/A   Partly Cloudy
5:52 PM 53.1 °F - 24.1 °F 32% 29.79 in 10.0 mi ESE 11.5 mph - 0.00 in   Overcast
6:52 PM 51.1 °F - 24.1 °F 35% 29.81 in 10.0 mi ESE 12.7 mph - N/A   Mostly Cloudy
7:52 PM 48.0 °F - 24.1 °F 39% 29.81 in 10.0 mi ESE 11.5 mph - N/A   Scattered Clouds
8:52 PM 46.9 °F - 24.1 °F 41% 29.79 in 10.0 mi ESE 13.8 mph - N/A   Clear
9:52 PM 48.0 °F - 24.1 °F 39% 29.79 in 10.0 mi ESE 17.3 mph - N/A   Overcast
10:52 PM 46.9 °F - 26.1 °F 44% 29.79 in 10.0 mi SE 19.6 mph - N/A   Overcast
11:52 PM 44.1 °F 36.5 °F 30.9 °F 60% 29.76 in 10.0 mi ESE 17.3 mph 21.9 mph 0.00 in Rain Light Rain